Location: Gleizolles
(44.4833°N, 6.7667°E)
Time: 10:03:07
(UTC+00:00)

MetOp-B - Pass Details

Date: 09 April 2020
Orbit: 819 x 822 km, 98.7° (Epoch: 04 June)

Event Time Altitude Azimuth Distance (km) Brightness Sun altitude
Exits shadow 20:32:21 48° 174° (S) 1,068 4.4 -23.4°
Maximum altitude 20:33:55 83° 255° (WSW) 834 4.1 -23.7°
Drops below altitude 10° 20:39:19 10° 345° (NNW) 2,429 7.3 -24.4°
Sets 20:41:41 0° 346° (NNW) 3,366 8.2 -24.7°
